Бохтариён

Таджикистан     37°52′52″N   68°43′50″E
В апреле 2022 года жителям России запретили посещать сайт meteo.paraplan.net по решению Генеральной прокуратуры. Аудитория сайта уменьшилась в 10 раз. Владельцы сайта не видят смысла в поддержке погодного сервера в таких условиях. Сайт будет закрыт в октябре.
темп.,
°C
ветер,
м/с
пор.,
м/с
влажн.,
%
обл.,
%
осадки,
мм/ч
давл.,
гПа
погр.,
м
30 сентября, пт
пт3023:00+21с22220 0.0 101013
02:00+20с22240 0.0 101016
05:00+19с22263 0.0 101114
08:00+23ссв122097 0.0 1012114
11:00+29ю221416 0.0 1012984
14:00+32ю441479 0.0 10092152
17:00+30ю461491 0.0 1009430
20:00+25зюз012097 0.0 101112
1 октября, сб
сб123:00+22ссв222553 0.0 101211
02:00+21ссв1126100 0.0 101211
05:00+20юз112693 0.0 101211
08:00+22ююз0123100 0.0 1014129
11:00+26ю231480 0.0 10141223
14:00+29ю32121 0.0 10121918
17:00+28ююв43130 0.0 10111130
20:00+21ссв12220 0.0 101312
2 октября, вс
вс223:00+19с11250 0.0 101411
02:00+17с11270 0.0 101411
05:00+16ссз11290 0.0 101511
08:00+19ссв11240 0.0 1016141
11:00+24ю22170 0.0 10151037
14:00+28ююв33140 0.0 10111893
17:00+27ююв44150 0.0 10101029
20:00+19ююв01240 0.0 101217
3 октября, пн
пн323:00+17ссз122627 0.0 101411
02:00+16ссз112798 0.0 101411
05:00+15с112781 0.0 101411
08:00+18св00237 0.0 1016139
11:00+23ю22173 0.0 10151052
14:00+26ююв33140 0.0 10131674
17:00+25ююв44140 0.0 10121094
20:00+18з11220 0.0 101511
4 октября, вт
вт423:00+16с22255 0.0 101716
02:00+15с22275 0.0 101717
05:00+14с22290 0.0 101713
08:00+18ссв22230 0.0 1018124
11:00+24ююв21150 0.0 1018891
14:00+28ююв23120 0.0 10151884
17:00+27ююв34120 0.0 1015296
20:00+20ссз11182 0.0 101811